Temperature
-1 -1 -0 -1 -1 -1 -1 -2 -2 -2 -2 -2 -2 -2 -2 -2 -2 -2 -2 -2 -3 -3 -3 -3 -3 -3 -3 -3 -2 -2 -2 -2 -2 -2 -2 -1 -1 -0 0 0 1 1 1 1
-2 -1 -1 -1 -1 -1 -2 -2 -2 -2 -2 -2 -2 -2 -3 -3 -3 -3 -3 -3 -3 -3 -3 -4 -3 -3 -3 -3 -3 -3 -3 -2 -2 -2 -2 -2 -1 -1 -1 -0 0 0 1 1
-2 -2 -2 -2 -2 -2 -2 -3 -3 -3 -3 -3 -4 -3 -3 -3 -3 -4 -4 -4 -4 -4 -4 -4 -4 -4 -4 -4 -4 -4 -3 -3 -3 -3 -3 -2 -2 -2 -1 -1 -1 -0 -0 -0
-3 -3 -3 -2 -3 -2 -3 -3 -4 -4 -4 -4 -4 -4 -4 -4 -4 -4 -4 -4 -5 -5 -5 -5 -5 -5 -5 -5 -4 -4 -4 -4 -4 -3 -3 -3 -3 -2 -2 -2 -1 -1 -1 -1
-4 -4 -4 -3 -3 -3 -3 -4 -4 -5 -5 -4 -4 -4 -4 -4 -4 -5 -5 -5 -5 -5 -5 -5 -5 -5 -5 -5 -5 -5 -5 -4 -4 -4 -4 -4 -3 -3 -3 -2 -2 -2 -2 -1
-5 -4 -4 -2 -3 -3 -3 -4 -4 -4 -5 -5 -5 -6 -5 -4 -5 -5 -5 -5 -6 -5 -5 -6 -6 -6 -6 -6 -6 -6 -5 -5 -5 -5 -4 -4 -4 -4 -3 -3 -3 -3 -2 -2
-5 -5 -4 -4 -3 -3 -4 -4 -4 -4 -4 -5 -6 -6 -5 -5 -6 -6 -6 -6 -6 -6 -6 -6 -6 -6 -6 -6 -6 -6 -6 -5 -5 -5 -5 -5 -4 -4 -4 -4 -3 -3 -3 -3
-6 -6 -4 -4 -4 -4 -4 -3 -4 -4 -4 -5 -5 -5 -6 -6 -6 -6 -6 -6 -6 -6 -6 -6 -7 -7 -7 -6 -6 -6 -6 -6 -5 -5 -5 -5 -5 -5 -4 -4 -4 -4 -4 -3
-5 -4 -4 -3 -4 -3 -4 -4 -4 -5 -5 -5 -6 -6 -6 -6 -6 -6 -6 -6 -6 -7 -7 -7 -7 -7 -7 -7 -7 -7 -6 -6 -6 -6 -5 -5 -5 -5 -5 -5 -4 -4 -4 -4
-6 -6 -5 -4 -4 -4 -4 -5 -5 -5 -6 -6 -6 -7 -7 -7 -7 -7 -7 -7 -7 -7 -7 -7 -7 -7 -7 -7 -7 -7 -7 -6 -6 -6 -6 -6 -6 -6 -5 -5 -5 -5 -5 -5
-7 -6 -5 -4 -4 -5 -5 -5 -6 -6 -6 -7 -7 -7 -7 -7 -7 -7 -7 -8 -8 -8 -8 -8 -8 -8 -8 -8 -8 -7 -7 -7 -7 -7 -6 -6 -6 -6 -6 -6 -6 -6 -6 -5
-6 -5 -6 -5 -5 -5 -6 -6 -7 -7 -7 -7 -8 -8 -8 -8 -8 -8 -8 -8 -8 -8 -8 -8 -8 -8 -8 -8 -8 -8 -8 -7 -7 -7 -7 -7 -7 -6 -6 -6 -6 -6 -6 -6
-5 -5 -6 -6 -6 -6 -7 -7 -7 -8 -8 -8 -8 -8 -8 -8 -8 -8 -8 -8 -9 -9 -8 -8 -8 -8 -8 -8 -8 -8 -8 -8 -8 -8 -8 -8 -7 -7 -7 -7 -6 -6 -6 -6
-6 -6 -7 -7 -7 -7 -7 -8 -8 -8 -8 -8 -8 -8 -9 -9 -9 -9 -9 -9 -9 -9 -9 -9 -9 -9 -9 -8 -8 -8 -8 -8 -8 -8 -8 -8 -8 -8 -8 -8 -7 -7 -7 -7
-6 -7 -7 -7 -7 -8 -8 -8 -8 -8 -9 -9 -9 -9 -9 -9 -9 -9 -9 -9 -9 -9 -9 -9 -9 -9 -9 -9 -9 -9 -9 -9 -9 -9 -8 -8 -8 -8 -8 -8 -8 -8 -7 -7
-7 -7 -8 -8 -8 -8 -8 -9 -9 -9 -9 -9 -9 -10 -10 -10 -10 -10 -10 -10 -10 -10 -10 -9 -9 -9 -9 -9 -9 -9 -9 -9 -9 -9 -9 -9 -9 -9 -9 -9 -9 -8 -8 -8
-8 -8 -8 -8 -8 -9 -9 -9 -10 -10 -10 -10 -10 -10 -10 -10 -10 -10 -10 -10 -10 -10 -10 -10 -10 -10 -9 -10 -10 -10 -10 -9 -9 -9 -9 -9 -9 -9 -9 -9 -9 -9 -9 -8
-8 -8 -8 -9 -9 -9 -9 -9 -10 -10 -10 -10 -10 -10 -10 -10 -10 -10 -10 -10 -10 -10 -10 -10 -10 -10 -10 -10 -10 -10 -10 -10 -10 -10 -10 -10 -10 -9 -9 -9 -9 -9 -9 -9
-8 -8 -9 -9 -9 -9 -10 -10 -10 -10 -10 -10 -10 -10 -11 -11 -11 -11 -11 -11 -10 -10 -10 -10 -10 -10 -10 -10 -10 -10 -10 -10 -10 -10 -10 -10 -10 -10 -10 -10 -10 -9 -9 -9
-8 -9 -9 -9 -9 -10 -10 -10 -10 -10 -10 -11 -11 -11 -11 -11 -11 -11 -11 -11 -11 -11 -11 -11 -11 -10 -10 -10 -10 -10 -10 -10 -11 -10 -10 -10 -10 -10 -10 -10 -10 -10 -10 -10
-9 -9 -9 -9 -10 -10 -10 -10 -11 -11 -11 -11 -11 -11 -11 -11 -11 -11 -11 -11 -11 -11 -11 -11 -11 -11 -11 -11 -11 -11 -11 -11 -11 -11 -11 -11 -11 -11 -11 -10 -10 -10 -10 -10
-9 -9 -10 -10 -10 -10 -10 -11 -11 -11 -11 -11 -11 -11 -12 -12 -12 -12 -12 -12 -12 -11 -11 -11 -11 -11 -11 -11 -11 -11 -11 -11 -11 -11 -11 -11 -11 -11 -11 -11 -11 -11 -11 -10
-10 -10 -10 -10 -11 -11 -11 -11 -11 -11 -11 -11 -12 -12 -12 -12 -12 -12 -12 -12 -12 -12 -12 -12 -12 -12 -12 -12 -12 -12 -12 -11 -11 -11 -11 -11 -11 -11 -11 -11 -11 -11 -11 -11
-10 -10 -10 -11 -11 -11 -11 -11 -11 -11 -12 -12 -12 -12 -13 -12 -12 -12 -13 -12 -12 -12 -12 -12 -12 -12 -12 -12 -12 -12 -12 -12 -12 -12 -12 -12 -12 -11 -11 -11 -11 -11 -11 -11
-10 -11 -11 -11 -11 -11 -11 -12 -12 -12 -12 -12 -12 -13 -13 -13 -13 -13 -13 -13 -13 -12 -12 -12 -12 -12 -12 -12 -12 -12 -12 -12 -12 -12 -12 -12 -12 -12 -12 -11 -11 -11 -11 -11
-11 -11 -11 -11 -12 -12 -12 -12 -12 -12 -12 -12 -12 -13 -13 -13 -13 -13 -13 -13 -13 -13 -13 -13 -13 -13 -13 -13 -12 -12 -12 -12 -12 -12 -12 -12 -12 -12 -12 -12 -12 -11 -11 -11
-11 -11 -11 -12 -12 -12 -12 -12 -12 -13 -13 -13 -13 -13 -13 -13 -13 -13 -13 -13 -13 -13 -13 -13 -13 -13 -13 -13 -13 -13 -13 -13 -12 -12 -12 -12 -12 -12 -12 -12 -12 -12 -12 -11
Wind_Speed
7 7 6 8 9 7 8 8 8 9 10 13 9 8 8 8 9 10 10 9 9 9 8 8 9 8 8 8 7 7 7 6 6 6 5 5 5 5 5 4 4 4 4 3
6 5 6 9 10 9 9 7 9 10 13 9 6 6 7 9 9 10 11 10 10 10 10 10 9 9 9 9 8 7 7 6 6 5 5 5 5 5 5 4 4 4 3 3
5 5 6 7 7 6 4 5 6 9 9 6 7 8 9 10 10 9 10 11 11 11 10 10 9 9 9 9 8 7 7 7 5 5 5 5 5 5 5 4 4 4 3 3
3 3 7 6 1 3 4 7 6 6 5 6 8 10 9 9 8 8 10 11 11 10 11 10 9 8 8 8 7 7 7 7 5 5 5 5 5 5 5 4 4 4 4 4
2 4 8 7 3 2 3 7 4 4 6 8 8 8 7 5 5 8 9 10 10 9 9 9 9 8 7 7 7 7 7 7 6 5 5 5 5 5 5 4 4 4 4 3
2 3 7 6 2 1 0 6 3 3 6 8 7 8 8 7 9 11 10 9 9 9 8 8 8 7 6 7 7 7 7 7 6 5 5 5 5 5 5 4 4 4 4 3
5 6 8 6 1 2 1 6 3 4 6 7 6 8 9 10 11 10 10 10 9 8 8 8 8 6 7 7 7 8 8 7 6 5 5 5 4 5 4 4 3 3 3 4
4 5 8 2 3 4 7 4 4 6 6 8 10 10 10 10 10 11 10 10 9 8 8 8 7 6 7 8 8 7 7 7 6 6 5 4 4 4 4 3 3 2 2 3
8 8 4 3 5 5 3 4 5 6 7 8 9 10 10 10 10 10 10 10 9 8 9 8 7 6 7 8 8 7 7 7 6 6 5 4 4 4 3 3 2 2 2 3
5 8 6 5 5 4 4 5 6 6 7 7 8 9 10 10 10 9 9 9 8 8 9 9 8 7 7 8 7 7 7 7 6 5 5 4 4 3 3 3 3 3 3 3
6 7 6 4 5 5 6 6 6 7 7 7 8 9 9 9 10 9 10 9 8 8 8 9 9 9 8 8 7 7 7 6 5 5 4 4 4 3 4 4 4 4 4 4
7 6 5 6 5 5 6 7 7 8 8 7 7 9 9 9 9 9 9 8 8 8 9 9 9 9 9 7 6 6 6 5 4 4 4 4 4 5 5 5 6 6 6 6
5 5 5 6 5 4 5 6 7 7 7 8 8 7 8 9 8 8 9 8 9 9 9 9 9 10 9 7 6 6 6 6 4 4 4 4 4 4 4 5 5 5 6 6
4 2 3 4 5 5 5 6 6 6 6 7 7 8 8 8 8 9 9 9 9 9 9 9 9 10 9 7 6 6 6 6 5 4 4 4 4 3 3 3 4 4 5 6
3 3 4 5 4 5 5 5 6 7 7 7 7 7 8 8 9 10 9 9 9 9 9 8 9 10 9 7 6 6 5 4 4 4 4 3 3 3 3 3 3 4 4 4
4 3 3 3 5 6 6 6 6 7 7 8 8 8 8 8 9 9 9 8 8 10 10 9 10 10 9 7 6 5 4 7 6 4 3 3 3 3 3 3 3 3 3 3
2 3 4 5 7 7 6 6 6 7 7 8 8 8 8 8 9 9 9 8 8 9 9 9 10 9 8 6 5 4 4 5 7 5 3 3 3 3 3 3 3 3 3 4
3 4 4 5 6 6 7 7 6 7 7 7 8 7 7 8 9 10 10 10 9 9 9 8 9 9 7 7 5 4 3 4 4 4 3 3 3 3 3 3 3 3 3 4
3 4 4 5 5 5 6 6 7 6 7 7 7 7 7 7 8 9 9 8 9 10 9 8 12 9 7 7 7 3 3 4 4 4 3 5 4 3 3 3 3 3 3 3
3 4 4 5 5 4 5 6 6 6 6 6 6 7 8 8 7 8 8 7 6 7 8 10 9 7 7 6 7 3 3 3 4 4 3 3 3 3 3 3 3 3 3 3
4 5 5 5 6 6 5 6 6 7 7 5 5 7 8 8 7 7 6 8 7 8 8 10 7 6 6 6 6 3 3 3 3 3 3 3 3 3 3 3 3 3 3 3
4 5 5 5 5 6 6 5 5 6 6 6 6 6 7 8 8 7 5 6 7 12 9 6 6 8 9 8 3 3 3 3 3 3 3 3 3 3 3 4 4 4 3 3
4 4 5 5 5 6 6 5 5 5 6 6 6 7 7 7 6 6 7 6 6 11 9 6 9 12 12 6 3 3 3 3 3 3 3 3 3 3 4 4 4 4 3 3
4 4 5 5 4 4 6 6 6 5 5 5 5 6 6 6 5 4 5 10 12 12 7 9 13 13 11 5 4 4 3 4 4 3 3 3 3 3 3 4 4 4 4 4
4 4 4 4 4 4 5 6 6 6 5 5 6 6 5 4 5 6 6 7 11 11 7 9 13 13 7 4 4 4 4 4 4 4 3 3 3 4 4 4 4 4 4 4
3 3 4 4 4 4 4 4 4 4 5 5 5 5 5 5 5 5 5 6 8 10 7 6 7 8 5 5 5 4 4 5 5 4 4 4 4 4 4 4 5 4 4 4
3 3 3 3 3 3 3 3 4 5 5 5 6 6 5 5 5 6 6 6 6 6 6 5 5 5 5 5 5 5 4 4 4 4 4 4 4 4 4 4 4 4 4 4
Wind_Direction
260 268 265 263 266 257 234 231 241 262 267 279 287 294 299 302 311 320 321 324 325 323 321 322 321 321 320 318 321 320 318 312 306 306 306 309 310 307 305 304 305 299 286 275
283 274 273 272 263 249 247 245 249 267 275 277 290 298 303 305 309 312 312 318 320 320 320 317 316 316 317 316 316 315 312 306 307 310 314 315 315 311 312 315 314 309 296 278
274 303 319 274 247 222 231 237 237 254 269 303 313 309 306 304 300 300 305 312 315 314 311 312 310 309 308 309 310 310 307 305 307 310 312 312 314 317 314 314 314 310 301 286
278 339 261 255 239 208 241 269 254 262 289 306 300 301 296 291 290 298 306 309 309 309 310 311 310 307 305 308 308 307 305 305 306 309 309 310 312 312 312 308 305 299 291 286
222 264 277 287 260 208 243 284 256 257 289 305 312 313 305 303 309 301 302 302 303 303 305 310 314 313 312 311 309 307 306 306 305 305 305 306 309 307 307 305 303 296 290 287
184 238 257 262 265 260 22 282 264 263 291 305 325 318 304 318 317 309 306 306 307 309 311 313 315 316 315 312 309 304 303 303 302 301 299 299 299 300 300 295 293 300 304 298
216 238 264 260 260 83 229 269 295 280 286 292 283 271 287 302 306 305 306 308 312 313 313 312 314 316 312 311 304 304 306 306 304 302 296 290 291 295 298 303 305 305 305 304
189 222 257 232 142 203 244 287 289 286 285 284 285 290 296 303 307 312 314 315 317 316 314 313 315 315 309 306 306 309 309 305 302 300 297 298 294 299 299 298 303 302 301 306
202 225 256 213 223 253 262 274 282 285 289 291 294 298 304 307 308 310 312 315 317 315 315 317 317 314 307 305 309 309 308 304 303 303 300 297 291 294 296 288 286 291 292 294
252 265 267 271 274 285 278 277 290 293 294 295 293 298 302 306 310 313 313 314 316 317 319 319 321 317 304 304 308 305 303 302 303 303 303 302 297 290 289 284 281 285 283 281
256 276 297 281 267 280 292 296 301 303 298 295 294 298 300 302 306 308 311 312 314 315 314 313 316 315 313 312 311 308 305 303 306 306 301 301 296 284 282 269 263 271 271 267
247 251 246 273 288 293 291 293 296 301 305 305 296 294 299 299 301 304 306 310 313 313 311 310 313 313 313 311 306 304 307 308 307 306 303 300 300 307 304 301 299 300 298 293
250 269 257 273 295 302 292 295 299 297 295 300 300 295 296 299 303 306 308 311 312 311 311 311 313 312 314 314 309 301 298 301 303 304 301 299 296 297 308 322 322 316 314 309
262 271 276 279 291 304 301 301 304 305 301 300 302 304 303 304 308 310 310 311 311 311 311 313 313 311 312 310 306 302 298 299 302 295 294 292 289 288 290 299 312 318 322 317
271 246 257 287 303 312 313 316 316 314 316 317 318 318 317 315 313 311 312 314 316 315 315 315 314 312 315 309 305 303 300 299 300 297 296 294 293 293 291 290 295 307 321 324
306 297 287 296 303 310 316 317 312 310 314 316 318 318 316 313 310 311 314 319 318 315 314 314 311 311 315 310 308 305 300 306 312 307 305 303 298 293 292 292 295 298 302 310
310 302 301 302 301 304 304 300 297 300 307 310 312 315 318 319 318 317 319 320 313 306 306 309 310 314 316 313 307 304 303 306 314 313 304 299 292 284 281 280 281 285 289 294
251 266 276 280 289 298 304 305 303 304 305 306 312 316 317 317 315 315 317 320 320 318 315 313 314 318 318 320 318 309 306 304 303 298 298 296 293 287 284 280 278 283 293 299
290 289 296 296 295 296 298 300 302 302 305 310 313 311 309 308 308 310 317 322 323 321 319 318 323 327 322 321 322 310 309 308 307 304 301 301 306 298 289 284 284 285 287 295
315 310 308 307 306 300 298 301 304 305 305 307 310 312 314 312 313 315 317 314 306 300 305 315 322 321 319 318 322 315 312 309 307 308 307 304 304 305 301 295 291 288 289 290
308 308 307 306 306 304 297 298 302 305 309 311 307 307 307 311 315 317 318 318 318 318 319 323 329 324 322 325 328 328 319 314 311 307 306 306 307 307 307 306 300 295 292 292
299 300 301 302 305 307 306 303 300 302 309 313 310 309 312 315 318 317 305 300 311 324 330 324 322 323 328 333 339 330 322 316 314 312 307 306 307 307 308 311 307 299 294 293
293 293 297 299 299 301 309 311 306 305 308 310 312 312 310 308 312 315 316 321 323 325 330 325 327 330 336 348 347 337 330 325 319 314 310 309 309 308 308 309 308 307 306 301
295 300 301 303 308 314 316 315 314 311 305 304 305 306 308 312 314 304 296 317 328 327 330 330 335 338 346 1 349 341 333 325 318 312 309 311 312 311 308 306 306 308 307 306
294 298 300 311 314 308 304 312 319 319 320 319 318 318 314 306 304 313 316 320 326 331 332 335 340 344 352 345 339 333 326 316 310 312 313 313 309 306 305 304 303 303 303 301
295 297 295 291 291 297 306 313 317 320 323 324 324 323 322 320 316 318 321 323 325 333 337 334 336 339 340 334 330 326 321 318 321 321 311 305 303 301 300 302 302 300 299 298
300 301 305 311 310 307 306 308 312 318 321 320 316 320 324 327 328 329 329 331 333 335 334 334 336 336 334 332 330 327 325 321 318 315 310 304 300 298 298 297 297 296 296 295
Height
1538 1536 1534 1533 1532 1532 1533 1532 1532 1525 1522 1516 1515 1514 1511 1509 1506 1503 1500 1497 1494 1490 1487 1484 1481 1478 1475 1473 1471 1469 1466 1465 1463 1462 1461 1461 1460 1459 1459 1459 1459 1459 1460 1460
1537 1533 1533 1531 1527 1527 1527 1527 1526 1522 1518 1513 1512 1511 1509 1506 1503 1500 1497 1494 1491 1488 1484 1480 1477 1474 1471 1469 1467 1465 1462 1461 1459 1458 1457 1456 1455 1455 1455 1454 1455 1455 1455 1455
1539 1535 1532 1530 1523 1522 1523 1521 1521 1519 1515 1511 1510 1508 1506 1503 1500 1497 1495 1491 1488 1484 1481 1477 1473 1470 1467 1465 1462 1460 1458 1456 1455 1454 1452 1452 1451 1451 1450 1450 1450 1450 1450 1451
1541 1539 1538 1525 1520 1519 1519 1518 1516 1514 1513 1511 1509 1506 1503 1501 1498 1494 1491 1488 1484 1480 1477 1473 1469 1466 1463 1461 1458 1456 1454 1452 1451 1449 1448 1448 1447 1447 1446 1446 1446 1446 1446 1446
1541 1541 1532 1523 1519 1518 1519 1516 1513 1513 1511 1509 1506 1502 1498 1497 1495 1492 1488 1485 1481 1477 1473 1469 1466 1462 1459 1456 1454 1452 1450 1448 1447 1446 1444 1443 1443 1442 1442 1442 1442 1442 1441 1442
1542 1540 1533 1520 1517 1515 1518 1516 1511 1510 1509 1507 1505 1503 1497 1494 1492 1488 1484 1481 1477 1473 1469 1466 1462 1459 1456 1453 1451 1448 1447 1445 1444 1442 1441 1440 1439 1439 1439 1438 1438 1438 1438 1438
1540 1538 1527 1517 1515 1516 1522 1515 1509 1508 1507 1505 1503 1501 1496 1492 1488 1485 1481 1477 1474 1470 1466 1463 1459 1456 1453 1450 1447 1445 1443 1442 1440 1439 1438 1437 1436 1436 1435 1434 1434 1434 1434 1434
1538 1538 1527 1514 1514 1516 1513 1508 1507 1505 1504 1502 1499 1495 1492 1488 1484 1481 1477 1474 1470 1466 1463 1460 1456 1453 1450 1447 1444 1442 1440 1438 1436 1435 1434 1433 1432 1432 1431 1431 1430 1430 1430 1430
1525 1520 1512 1510 1509 1509 1508 1506 1504 1502 1500 1498 1495 1491 1488 1484 1481 1477 1474 1470 1467 1463 1459 1456 1453 1450 1447 1444 1441 1438 1436 1434 1433 1432 1431 1430 1429 1428 1427 1427 1427 1426 1426 1426
1519 1511 1508 1508 1507 1506 1505 1503 1501 1500 1497 1494 1491 1487 1484 1481 1477 1474 1470 1467 1463 1460 1456 1452 1449 1447 1444 1441 1438 1435 1433 1431 1429 1428 1427 1426 1426 1425 1424 1424 1423 1423 1422 1422
1514 1508 1506 1503 1503 1503 1501 1500 1498 1495 1493 1491 1487 1484 1480 1477 1473 1470 1467 1463 1460 1456 1452 1449 1446 1443 1440 1437 1435 1432 1430 1428 1426 1425 1423 1422 1422 1422 1421 1421 1421 1420 1419 1419
1509 1505 1505 1502 1500 1499 1498 1496 1494 1491 1488 1486 1484 1480 1476 1473 1470 1466 1463 1459 1456 1453 1449 1445 1442 1439 1437 1434 1432 1429 1426 1424 1423 1421 1420 1419 1418 1418 1418 1418 1418 1417 1417 1417
1503 1501 1500 1499 1497 1496 1494 1492 1490 1488 1485 1482 1479 1476 1472 1469 1466 1462 1459 1456 1452 1449 1445 1442 1439 1435 1433 1431 1428 1426 1424 1422 1420 1419 1417 1416 1416 1414 1413 1414 1414 1414 1413 1413
1500 1499 1497 1495 1494 1493 1491 1489 1486 1484 1481 1478 1475 1472 1468 1465 1462 1459 1456 1452 1449 1445 1442 1439 1435 1432 1430 1427 1425 1423 1421 1419 1418 1416 1415 1414 1413 1412 1411 1410 1410 1409 1410 1410
1496 1496 1495 1493 1491 1489 1487 1485 1482 1479 1477 1474 1471 1468 1465 1462 1458 1455 1452 1449 1446 1442 1439 1435 1432 1429 1427 1424 1422 1420 1418 1416 1415 1413 1412 1411 1411 1410 1409 1409 1408 1407 1407 1407
1493 1492 1491 1490 1488 1486 1484 1482 1479 1476 1474 1471 1468 1465 1462 1459 1456 1452 1449 1446 1442 1438 1435 1432 1429 1426 1423 1421 1419 1417 1416 1414 1412 1411 1410 1409 1408 1407 1407 1407 1406 1405 1405 1405
1491 1489 1488 1487 1485 1483 1481 1479 1477 1474 1471 1468 1466 1463 1459 1456 1453 1449 1446 1443 1440 1436 1433 1430 1426 1424 1421 1418 1416 1414 1413 1411 1410 1409 1407 1407 1406 1405 1405 1404 1404 1403 1403 1403
1489 1488 1487 1485 1483 1481 1478 1476 1474 1471 1469 1466 1463 1460 1457 1453 1450 1447 1443 1440 1437 1433 1431 1427 1424 1421 1419 1416 1414 1413 1411 1409 1408 1407 1406 1405 1404 1403 1403 1402 1402 1401 1401 1401
1486 1485 1484 1482 1481 1478 1476 1474 1471 1469 1466 1463 1460 1457 1454 1451 1448 1444 1441 1438 1434 1430 1428 1425 1422 1419 1417 1415 1413 1411 1409 1408 1406 1405 1404 1403 1402 1401 1401 1400 1399 1399 1399 1398
1484 1483 1481 1480 1478 1476 1473 1471 1469 1466 1463 1461 1458 1454 1451 1449 1446 1442 1439 1436 1433 1429 1426 1423 1420 1417 1415 1413 1411 1409 1408 1406 1404 1403 1402 1401 1400 1399 1398 1398 1397 1397 1397 1396
1482 1480 1479 1477 1475 1473 1471 1468 1466 1463 1461 1458 1455 1452 1449 1446 1443 1440 1436 1433 1431 1428 1424 1421 1419 1416 1414 1411 1410 1408 1406 1404 1403 1401 1400 1399 1398 1397 1396 1396 1395 1395 1394 1394
1480 1478 1476 1474 1472 1470 1468 1466 1463 1460 1458 1455 1452 1449 1446 1443 1440 1437 1435 1432 1429 1426 1423 1420 1417 1414 1412 1410 1408 1406 1404 1403 1401 1400 1399 1398 1396 1395 1395 1394 1393 1393 1392 1392
1477 1476 1474 1472 1469 1467 1465 1463 1460 1458 1455 1452 1449 1447 1444 1441 1438 1435 1432 1430 1427 1424 1421 1418 1415 1413 1411 1408 1406 1404 1403 1401 1399 1398 1397 1396 1395 1394 1393 1392 1391 1391 1390 1390
1475 1473 1471 1469 1467 1465 1462 1460 1458 1455 1453 1450 1447 1445 1442 1439 1436 1434 1431 1428 1425 1422 1419 1416 1414 1411 1409 1406 1404 1403 1401 1399 1398 1396 1395 1394 1393 1392 1391 1390 1389 1389 1388 1387
1472 1471 1469 1467 1464 1462 1460 1458 1455 1453 1451 1448 1446 1443 1440 1437 1434 1431 1429 1426 1423 1420 1417 1415 1412 1410 1407 1405 1403 1401 1399 1398 1396 1395 1393 1392 1391 1390 1389 1388 1387 1386 1385 1385
1470 1468 1467 1465 1463 1461 1458 1456 1453 1451 1449 1446 1444 1441 1438 1436 1433 1430 1427 1424 1421 1418 1416 1413 1410 1408 1406 1403 1401 1399 1397 1396 1394 1393 1392 1390 1389 1388 1387 1386 1385 1384 1383 1382
1468 1466 1464 1463 1461 1459 1457 1455 1452 1450 1447 1445 1442 1440 1437 1434 1431 1428 1426 1423 1420 1417 1414 1412 1409 1407 1404 1402 1400 1398 1396 1394 1392 1391 1389 1388 1387 1386 1385 1384 1383 1382 1381 1380